Вернуться в каталог

STARLINK-35114

АктивенСвязьVLEO
NORAD 65502·PAYLOAD·🇺🇸 United States

Запущен Sep 5, 2025 с Cape Canaveral Space Force Station

Loading…

Ближайшие Пролёты (ближайшие 24 часа)

TLE

СвежийSource: CelesTrak SupGP

Эпоха: Sep 14, 2026, 21:42 UTC

1 65502C 25198L   26257.90465278 -.00036193  00000+0 -10696-2 0  2570
2 65502  53.1564 108.0821 0001291  89.4785  18.6919 15.34401405    10

Отслеживайте STARLINK-35114 в реальном времени с AllMySat

Download on the App Store